When you browse on this site, cookies collect data to enhance your experience and personalize the content and advertising you see.
Visit our Privacy Policy to learn more. By continuing to use the site, you agree to this use of cookies and data.
  • In Hungary
  • List of Countries
  • For 7 days
  • Water Temperature
  • Weather Map
  • News
  • Weather Widgets
  • user-avatar
    Login

    Hourly Weather Nowodomki

    Today, 23 February, Sunday

    Time Temperature Precipitation Wind Pressure Humidity
    00:00 +5°C° 0.1 mm 8 mps 744 mmHg 63%
    01:00 +5°C° 0.1 mm 8 mps 744 mmHg 67%
    02:00 +5°C° 0 mm 8 mps 743 mmHg 68%
    03:00 +5°C° 0.3 mm 8 mps 743 mmHg 70%
    04:00 +4°C° 0.3 mm 8 mps 743 mmHg 71%
    05:00 +4°C° 0.3 mm 7 mps 743 mmHg 73%
    06:00 +4°C° 0 mm 8 mps 743 mmHg 72%
    07:00 +2°C° 0 mm 8 mps 743 mmHg 72%
    08:00 +2°C° 0 mm 9 mps 744 mmHg 72%
    09:00 +2°C° 0 mm 9 mps 744 mmHg 68%
    10:00 +3°C° 0 mm 9 mps 743 mmHg 65%
    11:00 +3°C° 0 mm 9 mps 743 mmHg 62%
    12:00 +5°C° 0.2 mm 9 mps 743 mmHg 60%
    13:00 +5°C° 0.2 mm 9 mps 743 mmHg 59%
    14:00 +5°C° 0.2 mm 9 mps 743 mmHg 58%
    15:00 +5°C° 0.1 mm 8 mps 742 mmHg 61%
    16:00 +4°C° 0.1 mm 7 mps 741 mmHg 65%
    17:00 +4°C° 0.1 mm 6 mps 740 mmHg 69%
    18:00 +3°C° 0 mm 6 mps 739 mmHg 75%
    19:00 +3°C° 0 mm 5 mps 738 mmHg 81%
    20:00 +2°C° 0 mm 5 mps 737 mmHg 88%
    21:00 +3°C° 0.4 mm 4 mps 735 mmHg 90%
    22:00 +2°C° 0.4 mm 3 mps 734 mmHg 93%
    23:00 +2°C° 0.4 mm 3 mps 732 mmHg 95%

    Tomorrow, 24 February, Monday

    Time Temperature Precipitation Wind Pressure Humidity
    00:00 +2°C° 1.5 mm 3 mps 732 mmHg 96%
    01:00 0°C° 1.5 mm 4 mps 732 mmHg 96%
    02:00 0°C° 1.5 mm 4 mps 733 mmHg 96%
    03:00 0°C° 1 mm 5 mps 734 mmHg 96%
    04:00 -1°C° 1 mm 6 mps 735 mmHg 95%
    05:00 -1°C° 1 mm 8 mps 737 mmHg 95%
    06:00 0°C° 0.3 mm 8 mps 738 mmHg 92%
    07:00 0°C° 0.3 mm 8 mps 739 mmHg 89%
    08:00 0°C° 0.3 mm 9 mps 741 mmHg 85%
    09:00 0°C° 0.2 mm 9 mps 741 mmHg 84%
    10:00 0°C° 0.2 mm 9 mps 742 mmHg 83%
    11:00 +1°C° 0.2 mm 9 mps 743 mmHg 82%
    12:00 +2°C° 0.1 mm 9 mps 743 mmHg 72%
    13:00 +3°C° 0.1 mm 9 mps 744 mmHg 63%
    14:00 +5°C° 0.1 mm 8 mps 745 mmHg 54%
    15:00 +5°C° 0 mm 7 mps 745 mmHg 57%
    16:00 +4°C° 0 mm 6 mps 745 mmHg 59%
    17:00 +5°C° 0 mm 5 mps 746 mmHg 61%
    18:00 +3°C° 0 mm 5 mps 746 mmHg 66%
    19:00 +3°C° 0 mm 4 mps 746 mmHg 71%
    20:00 +1°C° 0 mm 4 mps 746 mmHg 75%
    21:00 +1°C° 0 mm 4 mps 746 mmHg 77%
    22:00 +2°C° 0 mm 3 mps 745 mmHg 79%
    23:00 +1°C° 0 mm 3 mps 745 mmHg 80%

    Day after tomorrow, 25 February, Tuesday

    Time Temperature Precipitation Wind Pressure Humidity
    00:00 +1°C° 0 mm 3 mps 744 mmHg 81%
    01:00 0°C° 0 mm 4 mps 744 mmHg 81%
    02:00 +1°C° 0 mm 4 mps 743 mmHg 82%
    03:00 0°C° 0.4 mm 5 mps 742 mmHg 86%
    04:00 -1°C° 0.4 mm 6 mps 740 mmHg 91%
    05:00 -2°C° 0.4 mm 6 mps 739 mmHg 96%
    06:00 -1°C° 1 mm 6 mps 738 mmHg 95%
    07:00 -1°C° 1 mm 6 mps 737 mmHg 95%
    08:00 +1°C° 1 mm 6 mps 736 mmHg 94%
    09:00 +2°C° 0.4 mm 6 mps 736 mmHg 93%
    10:00 +3°C° 0.4 mm 6 mps 736 mmHg 93%
    11:00 +5°C° 0.4 mm 7 mps 735 mmHg 92%
    12:00 +6°C° 0.1 mm 7 mps 735 mmHg 87%
    13:00 +8°C° 0.1 mm 7 mps 735 mmHg 81%
    14:00 +9°C° 0.1 mm 7 mps 734 mmHg 76%
    15:00 +8°C° 0.2 mm 6 mps 734 mmHg 80%
    16:00 +7°C° 0.2 mm 5 mps 733 mmHg 83%
    17:00 +7°C° 0.2 mm 5 mps 733 mmHg 87%
    18:00 +7°C° 0.4 mm 5 mps 733 mmHg 88%
    19:00 +6°C° 0.4 mm 5 mps 733 mmHg 90%
    20:00 +5°C° 0.4 mm 6 mps 733 mmHg 91%
    21:00 +6°C° 0.7 mm 5 mps 733 mmHg 87%
    22:00 +5°C° 0.7 mm 5 mps 733 mmHg 82%
    23:00 +5°C° 0.7 mm 5 mps 733 mmHg 77%

    26 February, Wednesday

    Time Temperature Precipitation Wind Pressure Humidity
    00:00 +3°C° 0 mm 5 mps 733 mmHg 76%
    01:00 +2°C° 0 mm 5 mps 733 mmHg 74%
    02:00 +2°C° 0 mm 5 mps 733 mmHg 73%
    03:00 +1°C° 0 mm 5 mps 733 mmHg 73%
    04:00 +1°C° 0 mm 5 mps 733 mmHg 74%
    05:00 0°C° 0 mm 5 mps 733 mmHg 74%
    06:00 0°C° 0 mm 5 mps 733 mmHg 75%
    07:00 0°C° 0 mm 5 mps 733 mmHg 76%
    08:00 0°C° 0 mm 4 mps 733 mmHg 77%
    09:00 +1°C° 0 mm 5 mps 733 mmHg 72%
    10:00 +2°C° 0 mm 6 mps 733 mmHg 67%
    11:00 +3°C° 0 mm 7 mps 733 mmHg 63%
    12:00 +3°C° 0 mm 7 mps 733 mmHg 58%
    13:00 +4°C° 0 mm 6 mps 733 mmHg 54%
    14:00 +5°C° 0 mm 6 mps 733 mmHg 49%
    15:00 +6°C° 0 mm 5 mps 732 mmHg 51%
    16:00 +6°C° 0 mm 4 mps 732 mmHg 53%
    17:00 +5°C° 0 mm 3 mps 732 mmHg 55%
    18:00 +5°C° 0 mm 4 mps 732 mmHg 59%
    19:00 +4°C° 0 mm 4 mps 732 mmHg 63%
    20:00 +3°C° 0 mm 5 mps 733 mmHg 66%
    21:00 +3°C° 0 mm 4 mps 733 mmHg 70%
    22:00 +1°C° 0 mm 4 mps 733 mmHg 74%
    23:00 +1°C° 0 mm 3 mps 733 mmHg 78%

    27 February, Thursday

    Time Temperature Precipitation Wind Pressure Humidity
    00:00 +1°C° 0 mm 3 mps 733 mmHg 78%
    01:00 0°C° 0 mm 4 mps 734 mmHg 78%
    02:00 0°C° 0 mm 4 mps 734 mmHg 78%
    03:00 -1°C° 0 mm 4 mps 734 mmHg 80%
    04:00 -1°C° 0 mm 4 mps 734 mmHg 82%
    05:00 0°C° 0 mm 3 mps 735 mmHg 83%
    06:00 -1°C° 0 mm 4 mps 735 mmHg 84%
    07:00 -1°C° 0 mm 4 mps 735 mmHg 85%
    08:00 -1°C° 0 mm 4 mps 735 mmHg 86%
    09:00 -1°C° 0 mm 4 mps 736 mmHg 82%
    10:00 0°C° 0 mm 5 mps 736 mmHg 78%
    11:00 +1°C° 0 mm 5 mps 736 mmHg 73%
    12:00 +1°C° 0.1 mm 5 mps 737 mmHg 74%
    13:00 +1°C° 0.1 mm 5 mps 737 mmHg 74%
    14:00 +1°C° 0.1 mm 6 mps 737 mmHg 75%
    15:00 +1°C° 0.1 mm 5 mps 737 mmHg 75%
    16:00 +1°C° 0.1 mm 5 mps 737 mmHg 76%
    17:00 0°C° 0.1 mm 4 mps 738 mmHg 77%
    18:00 0°C° 0.1 mm 4 mps 738 mmHg 81%
    19:00 0°C° 0.1 mm 3 mps 738 mmHg 85%
    20:00 0°C° 0.1 mm 3 mps 739 mmHg 89%
    21:00 -1°C° 0.1 mm 2 mps 739 mmHg 88%
    22:00 +1°C° 0.1 mm 1 mps 739 mmHg 87%
    23:00 0°C° 0.1 mm 0 mps 739 mmHg 86%

    28 February, Friday

    Time Temperature Precipitation Wind Pressure Humidity
    00:00 +1°C° 0 mm 1 mps 739 mmHg 86%
    01:00 +1°C° 0 mm 1 mps 738 mmHg 87%
    02:00 +1°C° 0 mm 1 mps 738 mmHg 87%
    03:00 -2°C° 0 mm 2 mps 738 mmHg 86%
    04:00 -2°C° 0 mm 2 mps 737 mmHg 85%
    05:00 -2°C° 0 mm 2 mps 737 mmHg 85%
    06:00 -1°C° 0 mm 3 mps 736 mmHg 83%
    07:00 -2°C° 0 mm 4 mps 735 mmHg 82%
    08:00 -2°C° 0 mm 5 mps 735 mmHg 81%
    09:00 -3°C° 0.1 mm 6 mps 734 mmHg 79%
    10:00 -2°C° 0.1 mm 6 mps 733 mmHg 76%
    11:00 -1°C° 0.1 mm 7 mps 733 mmHg 73%
    12:00 -1°C° 0.7 mm 6 mps 732 mmHg 79%
    13:00 -1°C° 0.7 mm 6 mps 732 mmHg 85%
    14:00 0°C° 0.7 mm 5 mps 731 mmHg 91%
    15:00 -1°C° 0.4 mm 5 mps 732 mmHg 93%
    16:00 -1°C° 0.4 mm 4 mps 732 mmHg 95%
    17:00 0°C° 0.4 mm 3 mps 732 mmHg 97%
    18:00 -1°C° 0.1 mm 4 mps 733 mmHg 95%
    19:00 -1°C° 0.1 mm 5 mps 734 mmHg 94%
    20:00 -2°C° 0.1 mm 6 mps 735 mmHg 93%
    21:00 -1°C° 0 mm 5 mps 737 mmHg 92%
    22:00 -2°C° 0 mm 5 mps 738 mmHg 91%
    23:00 -2°C° 0 mm 5 mps 739 mmHg 90%
    Show more